North Platte, NE

8:46 AM CDT on April 20, 2018 (GMT -0500)
North Platte Regional-Bird

Weather History for KLBF - July, 2013

Change the Weather History Date:

Tuesday, July 23, 2013

  Actual Average Record
Temperature  
Mean Temperature 77 °F 75 °F  
Max Temperature 91 °F 89 °F 104 °F (1940)
Min Temperature 62 °F 61 °F 49 °F (1948)
Degree Days  
Heating Degree Days 0 0  
Month to date heating degree days 4 0  
Since 1 June heating degree days 51 51  
Since 1 July heating degree days 4 0  
Cooling Degree Days 12 10  
Month to date cooling degree days 269 216  
Year to date cooling degree days 496 382  
Since 1 June cooling degree days 448 354  
Growing Degree Days 27 (Base 50)    
Moisture  
Dew Point 58 °F    
Average Humidity 58    
Maximum Humidity 87    
Minimum Humidity 29    
Precipitation  
Precipitation T in 0.11 in 1.15 in (1985)
Month to date precipitation 0.84 2.26  
Year to date precipitation 8.95 13.12  
Snow  
Snow 0.00 in 0.00 in 0.00 in (2002)
Month to date snowfall 0.0 0.0  
Since 1 June snowfall T 0.0  
Since 1 July snowfall 0.0 0.0  
Snow Depth 0.00 in    
Sea Level Pressure  
Sea Level Pressure 29.92 in    
Wind  
Wind Speed 8 mph (ENE)    
Max Wind Speed 24 mph    
Max Gust Speed 31 mph    
Visibility 10 miles    
Events      
T = Trace of Precipitation, MM = Missing Value Source: NWS Daily Summary

Daily Weather History Graph

Daily Weather History Graph

Search for Another Location

Airport or City:

Astronomy

Jul. 23, 2013 Rise Set
Actual Time 6:30 AM CDT 9:07 PM CDT
Civil Twilight 5:58 AM CDT 9:39 PM CDT
Nautical Twilight 5:18 AM CDT 10:19 PM CDT
Astronomical Twilight 4:33 AM CDT 11:03 PM CDT
Moon 9:35 PM CDT (7/23) 7:42 AM CDT (7/23)
Length of Visible Light 15h 41m
Length of Day
14h 37m
Full, 99% of the Moon is Illuminated
Jul 23
Full
Jul 29
Last Quarter
Aug 6
New
Aug 14
First Quarter
Aug 20
Full

Hourly Weather History & Observations

Time (CDT) Temp. Heat Index Dew Point Humidity Pressure Visibility Wind Dir Wind Speed Gust Speed Precip Events Conditions
12:53 AM 69.1 °F - 59.0 °F 70% 29.81 in 10.0 mi East 5.8 mph - N/A   Clear
1:53 AM 66.9 °F - 59.0 °F 76% 29.88 in 10.0 mi NE 8.1 mph - N/A   Clear
2:53 AM 70.0 °F - 57.0 °F 63% 29.92 in 10.0 mi NE 15.0 mph 25.3 mph N/A   Scattered Clouds
3:53 AM 66.9 °F - 54.0 °F 63% 29.92 in 10.0 mi ENE 21.9 mph 29.9 mph N/A   Clear
4:53 AM 64.0 °F - 54.0 °F 70% 29.90 in 10.0 mi East 15.0 mph - 0.00 in   Partly Cloudy
5:53 AM 63.0 °F - 55.9 °F 78% 29.83 in 10.0 mi ESE 18.4 mph - N/A   Clear
6:53 AM 63.0 °F - 57.0 °F 81% 29.87 in 10.0 mi East 10.4 mph - N/A   Clear
7:53 AM 64.9 °F - 57.9 °F 78% 29.91 in 10.0 mi ESE 6.9 mph - N/A   Clear
8:53 AM 66.9 °F - 57.9 °F 73% 29.91 in 10.0 mi SE 9.2 mph - N/A   Clear
9:53 AM 71.1 °F - 57.9 °F 63% 29.94 in 10.0 mi East 9.2 mph - N/A   Clear
10:53 AM 75.0 °F - 57.0 °F 53% 29.95 in 10.0 mi Variable 3.5 mph - N/A   Scattered Clouds
11:53 AM 78.1 °F - 57.9 °F 50% 29.95 in 10.0 mi Calm Calm - N/A   Clear
12:53 PM 82.0 °F 81.7 °F 57.0 °F 42% 29.93 in 10.0 mi Calm Calm - N/A   Clear
1:53 PM 87.1 °F 86.1 °F 57.9 °F 37% 29.91 in 10.0 mi West 3.5 mph - N/A   Clear
2:53 PM 89.1 °F 86.9 °F 54.0 °F 30% 29.90 in 10.0 mi Variable 3.5 mph - N/A   Clear
3:53 PM 89.1 °F 87.1 °F 55.0 °F 31% 29.91 in 10.0 mi NE 4.6 mph - N/A   Clear
4:53 PM 88.0 °F 86.7 °F 57.0 °F 35% 29.91 in 10.0 mi NE 11.5 mph - N/A   Clear
5:53 PM 86.0 °F 85.4 °F 59.0 °F 40% 29.92 in 10.0 mi ENE 9.2 mph - N/A   Clear
6:53 PM 82.9 °F 84.0 °F 63.0 °F 51% 29.93 in 10.0 mi ENE 13.8 mph 19.6 mph N/A   Clear
7:53 PM 79.0 °F - 63.0 °F 58% 29.94 in 10.0 mi East 15.0 mph - N/A   Clear
8:53 PM 73.9 °F - 62.1 °F 66% 29.99 in 10.0 mi NE 9.2 mph - N/A   Clear
9:53 PM 71.1 °F - 62.1 °F 73% 29.99 in 10.0 mi NE 4.6 mph - N/A   Clear
10:53 PM 66.9 °F - 61.0 °F 81% 29.99 in 10.0 mi East 5.8 mph - N/A   Clear
11:53 PM 64.0 °F - 60.1 °F 87% 30.01 in 10.0 mi ENE 4.6 mph - N/A   Clear